Meteo pe oră la Bolshie Litvinovichi

Astăzi, 8 Mai, Sâmbătă

Timp Temperatura Precipitaţii Vânt Presiune Umiditate
00:00 +7°C° 0 mm 2 m/s 742 mmHg 96%
01:00 +6°C° 0 mm 2 m/s 742 mmHg 96%
02:00 +6°C° 0 mm 2 m/s 742 mmHg 96%
03:00 +6°C° 0 mm 2 m/s 742 mmHg 96%
04:00 +5°C° 0 mm 3 m/s 742 mmHg 96%
05:00 +4°C° 0 mm 3 m/s 742 mmHg 95%
06:00 +5°C° 0 mm 3 m/s 743 mmHg 92%
07:00 +6°C° 0 mm 4 m/s 743 mmHg 89%
08:00 +6°C° 0 mm 4 m/s 743 mmHg 86%
09:00 +6°C° 0.3 mm 4 m/s 744 mmHg 84%
10:00 +6°C° 0.3 mm 4 m/s 744 mmHg 82%
11:00 +6°C° 0.3 mm 4 m/s 745 mmHg 80%
12:00 +7°C° 0.3 mm 5 m/s 745 mmHg 76%
13:00 +7°C° 0.3 mm 5 m/s 746 mmHg 71%
14:00 +8°C° 0.3 mm 6 m/s 746 mmHg 67%
15:00 +8°C° 0.1 mm 6 m/s 747 mmHg 66%
16:00 +8°C° 0.1 mm 6 m/s 747 mmHg 65%
17:00 +8°C° 0.1 mm 7 m/s 747 mmHg 64%
18:00 +5°C° 0 mm 6 m/s 748 mmHg 68%
19:00 +5°C° 0 mm 4 m/s 749 mmHg 71%
20:00 +3°C° 0 mm 3 m/s 749 mmHg 75%
21:00 +3°C° 0 mm 3 m/s 750 mmHg 78%
22:00 +2°C° 0 mm 3 m/s 750 mmHg 81%
23:00 +2°C° 0 mm 3 m/s 751 mmHg 84%

Mâine, 9 Mai, Duminică

Timp Temperatura Precipitaţii Vânt Presiune Umiditate
00:00 +1°C° 0 mm 3 m/s 751 mmHg 86%
01:00 +1°C° 0 mm 3 m/s 752 mmHg 88%
02:00 +1°C° 0 mm 3 m/s 752 mmHg 90%
03:00 +1°C° 0 mm 3 m/s 752 mmHg 90%
04:00 +1°C° 0 mm 2 m/s 753 mmHg 91%
05:00 +1°C° 0 mm 2 m/s 753 mmHg 92%
06:00 +3°C° 0 mm 2 m/s 754 mmHg 84%
07:00 +5°C° 0 mm 2 m/s 755 mmHg 76%
08:00 +8°C° 0 mm 3 m/s 755 mmHg 68%
09:00 +9°C° 0 mm 3 m/s 755 mmHg 62%
10:00 +10°C° 0 mm 3 m/s 755 mmHg 57%
11:00 +11°C° 0 mm 3 m/s 755 mmHg 51%
12:00 +12°C° 0 mm 3 m/s 755 mmHg 49%
13:00 +12°C° 0 mm 3 m/s 756 mmHg 46%
14:00 +13°C° 0 mm 3 m/s 756 mmHg 44%
15:00 +14°C° 0 mm 2 m/s 756 mmHg 45%
16:00 +14°C° 0 mm 2 m/s 756 mmHg 45%
17:00 +14°C° 0 mm 2 m/s 756 mmHg 46%
18:00 +12°C° 0 mm 2 m/s 756 mmHg 52%
19:00 +10°C° 0 mm 2 m/s 757 mmHg 58%
20:00 +8°C° 0 mm 2 m/s 757 mmHg 64%
21:00 +7°C° 0 mm 2 m/s 757 mmHg 65%
22:00 +6°C° 0 mm 2 m/s 757 mmHg 67%
23:00 +6°C° 0 mm 2 m/s 758 mmHg 69%

Poimâine, 10 Mai, Luni

Timp Temperatura Precipitaţii Vânt Presiune Umiditate
00:00 +5°C° 0 mm 2 m/s 758 mmHg 70%
01:00 +5°C° 0 mm 2 m/s 758 mmHg 72%
02:00 +5°C° 0 mm 2 m/s 758 mmHg 74%
03:00 +5°C° 0 mm 2 m/s 758 mmHg 76%
04:00 +4°C° 0 mm 2 m/s 758 mmHg 78%
05:00 +4°C° 0 mm 2 m/s 758 mmHg 80%
06:00 +7°C° 0 mm 3 m/s 759 mmHg 73%
07:00 +9°C° 0 mm 3 m/s 759 mmHg 66%
08:00 +11°C° 0 mm 3 m/s 759 mmHg 60%
09:00 +12°C° 0 mm 3 m/s 759 mmHg 55%
10:00 +14°C° 0 mm 4 m/s 759 mmHg 51%
11:00 +15°C° 0 mm 4 m/s 759 mmHg 46%
12:00 +17°C° 0 mm 4 m/s 759 mmHg 45%
13:00 +18°C° 0 mm 4 m/s 759 mmHg 43%
14:00 +18°C° 0 mm 4 m/s 758 mmHg 42%
15:00 +18°C° 0 mm 4 m/s 758 mmHg 45%
16:00 +18°C° 0 mm 3 m/s 758 mmHg 47%
17:00 +18°C° 0 mm 3 m/s 758 mmHg 50%
18:00 +16°C° 0 mm 3 m/s 758 mmHg 57%
19:00 +13°C° 0 mm 3 m/s 758 mmHg 65%
20:00 +11°C° 0 mm 3 m/s 758 mmHg 72%
21:00 +10°C° 0 mm 3 m/s 758 mmHg 73%
22:00 +9°C° 0 mm 3 m/s 758 mmHg 75%
23:00 +8°C° 0 mm 3 m/s 759 mmHg 76%

11 Mai, Marţi

Timp Temperatura Precipitaţii Vânt Presiune Umiditate
00:00 +8°C° 0 mm 3 m/s 759 mmHg 77%
01:00 +7°C° 0 mm 3 m/s 759 mmHg 77%
02:00 +7°C° 0 mm 3 m/s 759 mmHg 78%
03:00 +6°C° 0 mm 2 m/s 759 mmHg 79%
04:00 +6°C° 0 mm 2 m/s 759 mmHg 79%
05:00 +6°C° 0 mm 2 m/s 759 mmHg 79%
06:00 +8°C° 0 mm 3 m/s 759 mmHg 72%
07:00 +10°C° 0 mm 3 m/s 759 mmHg 65%
08:00 +13°C° 0 mm 3 m/s 759 mmHg 58%
09:00 +14°C° 0 mm 3 m/s 758 mmHg 54%
10:00 +15°C° 0 mm 4 m/s 758 mmHg 49%
11:00 +18°C° 0 mm 4 m/s 758 mmHg 45%
12:00 +18°C° 0 mm 4 m/s 758 mmHg 43%
13:00 +19°C° 0 mm 4 m/s 757 mmHg 42%
14:00 +20°C° 0 mm 4 m/s 757 mmHg 41%
15:00 +19°C° 0 mm 4 m/s 757 mmHg 44%
16:00 +19°C° 0 mm 4 m/s 756 mmHg 48%
17:00 +19°C° 0 mm 4 m/s 756 mmHg 52%
18:00 +17°C° 0 mm 4 m/s 756 mmHg 59%
19:00 +14°C° 0 mm 3 m/s 756 mmHg 67%
20:00 +12°C° 0 mm 3 m/s 755 mmHg 75%
21:00 +11°C° 0 mm 3 m/s 755 mmHg 78%
22:00 +10°C° 0 mm 3 m/s 755 mmHg 80%
23:00 +10°C° 0 mm 3 m/s 755 mmHg 82%

12 Mai, Miercuri

Timp Temperatura Precipitaţii Vânt Presiune Umiditate
00:00 +10°C° 0 mm 3 m/s 755 mmHg 86%
01:00 +9°C° 0 mm 3 m/s 755 mmHg 90%
02:00 +9°C° 0 mm 2 m/s 755 mmHg 94%
03:00 +9°C° 0 mm 2 m/s 755 mmHg 95%
04:00 +9°C° 0 mm 2 m/s 754 mmHg 95%
05:00 +9°C° 0 mm 2 m/s 754 mmHg 96%
06:00 +11°C° 0 mm 3 m/s 754 mmHg 88%
07:00 +13°C° 0 mm 4 m/s 754 mmHg 81%
08:00 +15°C° 0 mm 4 m/s 753 mmHg 73%
09:00 +16°C° 0 mm 5 m/s 753 mmHg 69%
10:00 +17°C° 0 mm 6 m/s 752 mmHg 65%
11:00 +18°C° 0 mm 7 m/s 752 mmHg 61%
12:00 +17°C° 0.1 mm 7 m/s 752 mmHg 67%
13:00 +16°C° 0.1 mm 7 m/s 752 mmHg 72%
14:00 +15°C° 0.1 mm 7 m/s 752 mmHg 77%
15:00 +15°C° 0 mm 6 m/s 752 mmHg 72%
16:00 +15°C° 0 mm 5 m/s 752 mmHg 68%
17:00 +15°C° 0 mm 5 m/s 752 mmHg 64%
18:00 +14°C° 0 mm 4 m/s 751 mmHg 70%
19:00 +12°C° 0 mm 3 m/s 751 mmHg 77%
20:00 +11°C° 0 mm 3 m/s 751 mmHg 84%
21:00 +10°C° 0 mm 3 m/s 751 mmHg 87%
22:00 +9°C° 0 mm 3 m/s 751 mmHg 90%
23:00 +9°C° 0 mm 3 m/s 751 mmHg 93%

13 Mai, Joi

Timp Temperatura Precipitaţii Vânt Presiune Umiditate
00:00 +8°C° 0 mm 3 m/s 751 mmHg 93%
01:00 +8°C° 0 mm 3 m/s 750 mmHg 94%
02:00 +8°C° 0 mm 3 m/s 750 mmHg 95%
03:00 +8°C° 0 mm 3 m/s 750 mmHg 95%
04:00 +8°C° 0 mm 3 m/s 750 mmHg 94%
05:00 +8°C° 0 mm 3 m/s 749 mmHg 94%
06:00 +9°C° 0 mm 3 m/s 749 mmHg 89%
07:00 +11°C° 0 mm 3 m/s 748 mmHg 85%
08:00 +12°C° 0 mm 4 m/s 748 mmHg 81%
09:00 +14°C° 0.1 mm 4 m/s 747 mmHg 75%
10:00 +15°C° 0.1 mm 5 m/s 747 mmHg 70%
11:00 +17°C° 0.1 mm 5 m/s 746 mmHg 65%
12:00 +15°C° 0.3 mm 4 m/s 746 mmHg 71%
13:00 +13°C° 0.3 mm 3 m/s 746 mmHg 78%
14:00 +13°C° 0.3 mm 2 m/s 746 mmHg 84%
15:00 +13°C° 0.3 mm 3 m/s 745 mmHg 81%
16:00 +13°C° 0.3 mm 3 m/s 745 mmHg 78%
17:00 +14°C° 0.3 mm 3 m/s 745 mmHg 75%
18:00 +13°C° 0.1 mm 3 m/s 745 mmHg 81%
19:00 +12°C° 0.1 mm 3 m/s 745 mmHg 87%
20:00 +10°C° 0.1 mm 3 m/s 746 mmHg 93%
21:00 +10°C° 0 mm 3 m/s 746 mmHg 93%
22:00 +9°C° 0 mm 3 m/s 746 mmHg 94%
23:00 +9°C° 0 mm 3 m/s 746 mmHg 94%
Arată mai mult

Formular de consimțământ

Meteoprog și furnizorii noștri de servicii pot stoca și accesa date personale, precum cookies, identificatori de dispozitiv sau alte tehnologii similare pe dispozitivul dumneavoastră și procesa astfel de date pentru a personaliza conținutul și reclamele, dar și pentru a oferi caracteristici de social media și pentru a analiza traficul.

  • Stocarea și/sau accesarea informațiilor pe dispozitivul dumneavoastră

    Cookies, identificatori de dispozitiv sau alte informații pot fi stocate sau accesate pe dispozitiv în scopurile indicate mai sus.

  • Reclame și conținut personalizat, evaluarea reclamelor și a conținutului, informații despre audiențe și dezvoltarea produselor

    Reclamele și conținutul pot fi personalizate pe baza unui profil. Pot fi adăugate date suplimentare pentru a personaliza mai bine reclamele și conținutul. Performanța reclamelor și conținutului poate fi măsurată. Pot fi obținute informații despre utilizatorii care au văzut reclamele și conținutul. Aceste date pot fi utilizate pentru a dezvolta sau îmbunătăți experiența utilizatorilor, sistemele și software-ul.

Dând clic pe ‘Sunt de acord’, permiteți utilizarea cookie-urilor menționate, a identificatorilor de dispozitiv, balizelor web sau altor tehnologii similare. Setările pot fi modificate din browser-ul dispozitivului dumneavoastră.

În anumite scopuri, interesele legitime pot prima asupra consimțământului. Puteți citi mai multe informații în acest sens în Politica privind Confidențialitatea Datelor și Cookie.